Fort Simpson, Northwest Territories

8:39 AM MDT on August 23, 2017 (GMT -0600)
Fort Simpson | | Change Station

Elev 554 ft 61.75 °N, 121.23 °W | Updated 39 minutes ago

Mostly Cloudy
Mostly Cloudy
59 °F
Feels Like 59 °F
N
5
Wind Variable Wind from ESE

Today
High -- | Low -- °F
--% Chance of Precip.
Yesterday
High -- | Low -- °F
Precip. -- in
Pressure 29.65 in
Visibility 15.0 miles
Clouds Few 5000 ft
Mostly Cloudy 7500 ft
Dew Point 48 °F
Humidity 67%
Rainfall 0.00 in
Snow Depth Not available.
6:32 AM 9:40 PM
Waxing Crescent, 4% visible
METAR CYFS 231400Z 11004KT 050V180 15SM FEW050 BKN075 15/09 A2963 RMK SC2AC3 PRESFR SLP040 DENSITY ALT 1000FT
Pressure 29.65 in
Visibility 15.0 miles
Clouds Few 5000 ft
Mostly Cloudy 7500 ft
Dew Point 48 °F
Humidity 67%
Rainfall 0.00 in
Snow Depth Not available.
6:32 AM 9:40 PM
Waxing Crescent, 4% visible
METAR CYFS 231400Z 11004KT 050V180 15SM FEW050 BKN075 15/09 A2963 RMK SC2AC3 PRESFR SLP040 DENSITY ALT 1000FT

Get Severe Weather Alerts

Thanks for signing up!

Be on the lookout for a verification email in your inbox.

You'll start receiving the daily forecast at 6 AM.

×

10-Day Weather Forecast

Almanac

Astronomy

Aug. 23, 2017 Rise Set
Actual Time
Civil Twilight
Nautical Twilight
Astronomical Twilight
Moon
Length of Visible Light
Length of Day
Tomorrow will be .
, % of the Moon is Illuminated

Today's Extremes

Country Highs Country Lows

Community

WunderPhotos

Category 6

Welcome to Category 6. This is the collective home for Weather Underground's featured writeups by Dr. Jeff Masters (right), Bob Henson (left), Chris Burt, and other regular contributors.

Nearby

Air Quality

  Air Quality AQ Index Pollutant
Not available.

Snow Depth

Station Depth Elevation

Earthquake Activity

City Distance Mag. Time & Date
Minimum magnitude displayed is 2.5.

Coastal Water Temperatures

Place Temperature

Stations

Nearby Weather Stations

Station Location Temp. Windchill Dew Point Humidity Wind Precip. Elev Updated Type
                   

Watches & Warnings

There are currently no watches in effect.